2018-104P (43862 NORAD) Tracking and Keplerian Element Data

This shows tracking and keplerian element data for the satellite.

Feedback or suggestion? Click here.




ElementValue
Catalog43862
Name2018-104P
Epoch Orbit436
Epoch Day14.04634536
Epoch Year2019
RAAN159.3392
Inclination85.0426
Eccentricity0.0018452
Argument of Perigee173.7052
Mean Anonmoly186.4739
Mean Motion15.21319424
Decay Rate4.2E-07
L11 43862U 18104P 19014.04634536 .00000042 00000-0 00000+0 0 9998
L22 43862 85.0426 159.3392 0018452 173.7052 186.4739 15.21319424 4360



Live tracking and technical data element details for 2018-104P (NORAD 43862). 2018-104P can be tracked NOW for your location showing map with azimuth and elevation plus other details from your city location.







IsCatalogInMostPopularTable: catalog: 43862, numindb: 283
Update: records affected: 1



GetName: 43862 2018-104P

Hit Count: updated at: Sun, 28 May 2023 20:40:48 GMT